Regional Weather Roundup
Issued by NWS

Home | Current Version | Previous Version | Graphics & Text | Print | Product List | Glossary On
Versions: 1 2 3 4 5 6 7 8 9 10 11 12 13 14 15 16 17 18 19 20 21 22 23 24 25 26 27 28 29 30 31 32 33 34 35 36 37 38 39 40 41 42 43 44 45 46 47 48 49 50
000
ASUS43 KMKX 251000
RWRWI

WISCONSIN REGIONAL WEATHER ROUNDUP
NATIONAL WEATHER SERVICE MILWAUKEE/SULLIVAN WI
500 AM CDT WED MAY 25 2016

NOTE: "FAIR" INDICATES FEW OR NO CLOUDS BELOW 12,000 FEET WITH NO
SIGNIFICANT WEATHER AND/OR OBSTRUCTIONS TO VISIBILITY.

WIZ001-002-006>008-014>016-023>028-251100-
NORTHWEST WISCONSIN

CITY           SKY/WX    TMP DP  RH WIND       PRES   REMARKS
SUPERIOR ARPT  LGT SNOW  45  45 100 NE8       30.03S VSB 3/4
ASHLAND        FOG       49  49 100 N6        30.03S VSB 1/4
HAYWARD        CLOUDY    50  49  96 NE6       29.99F FOG
SIREN          CLOUDY    58  57  98 NE5       29.96F FOG
CUMBERLAND     PTCLDY    57  55  94 N3        29.96F
RICE LAKE      PTCLDY    61  57  87 E5        29.97F
CHETEK         PTCLDY    56  56  98 E5        29.96S
LADYSMITH      CLOUDY    58  57  96 NE7       29.99F
EAU CLAIRE     NOT AVBL
MENOMONIE      CLOUDY    57  55  92 CALM      29.94S
NEW RICHMOND   CLOUDY    61  55  80 E3        29.93F
OSCEOLA        CLOUDY    61  58  89 CALM      29.95F
$$

WIZ003>005-009-010-017-018-251100-
NORTH CENTRAL WISCONSIN

CITY           SKY/WX    TMP DP  RH WIND       PRES   REMARKS
MANITOWISH WTR NOT AVBL
ARBOR VITAE    FOG       57  56  96 CALM      30.02F VSB 1/2
WOODRUFF       FOG       57  56  96 CALM      30.02F VSB 1/2
RHINELANDER    FOG       54  53  97 NE6       30.03S VSB 1/4
EAGLE RIVER    FOG       58  58 100 CALM      30.03S VSB 1/2
LAND O LAKES   CLOUDY    57  57 100 CALM      30.04F FOG
PHILLIPS       FOG       50  50 100 CALM      30.00F VSB 1/2
TOMAHAWK       FOG       46  46  97 CALM      30.01F VSB 1/4
MEDFORD        CLOUDY    55  55 100 CALM      29.99S
MERRILL        FOG       51  51 100 CALM      30.01S VSB 1
$$

WIZ029-030-035-036-043>047-251100-
CENTRAL WISCONSIN

CITY           SKY/WX    TMP DP  RH WIND       PRES   REMARKS
WAUSAU         CLEAR     57  54  89 CALM      29.98S
MOSINEE        CLEAR     55  54  94 CALM      30.00F
MARSHFIELD     CLOUDY    60  56  86 NE8       29.96F
STEVENS POINT  CLOUDY    50  50  99 CALM      29.99S
WAUPACA        CLOUDY    57  56  97 CALM      29.99R
WAUTOMA        NOT AVBL
WISC RAPIDS    CLOUDY    54  52  93 CALM      29.97F
CAMP DOUGLAS   CLOUDY    50  50 100 S1        29.94F
$$

WIZ011>013-019>022-031-037>040-048>050-251100-
NORTHEAST WISCONSIN

CITY           SKY/WX    TMP DP  RH WIND       PRES   REMARKS
ANTIGO         PTCLDY    51  51 100 E6        30.02S
SHAWANO        MOCLDY    61  58  91 NE10      30.01R
OCONTO         CLOUDY   N/A N/A N/A NE7       30.01R
STURGEON BAY   NOT AVBL
GREEN BAY      CLOUDY    58  57  97 NE13      30.00S FOG
MANITOWOC      NOT AVBL
APPLETON       CLEAR     61  54  77 NE8       29.98R
CLINTONVILLE   CLEAR     57  55  94 NE6       29.99F
OSHKOSH        CLEAR     58  55  90 CALM      29.97F
$$

WIZ032>034-041-042-053>061-251100-
SOUTHWEST WISCONSIN

CITY           SKY/WX    TMP DP  RH WIND       PRES   REMARKS
LA CROSSE      CLEAR     61  57  87 E5        29.90F
SPARTA         PTCLDY    49  49  99 CALM      29.94F
VIROQUA        CLEAR     61  57  87 E8        29.94F
BOSCOBEL       CLOUDY    60  58  92 CALM      29.92F FOG
PRAIRIE DU CHI PTCLDY    61  58  92 CALM      29.90F
PLATTEVILLE    CLEAR     65  62  88 SE3       29.93F
$$

WIZ056-057-062-063-064-067-068-251100-
SOUTH CENTRAL WISCONSIN

CITY           SKY/WX    TMP DP  RH WIND       PRES   REMARKS
REEDSBURG      CLOUDY    55  55 100 CALM      29.94F
BARABOO/DELLS  CLOUDY    57  55  92 CALM      29.95F
LONE ROCK      NOT AVBL
MINERAL POINT  PTCLDY    66  59  77 E5        29.93F
MADISON        PTCLDY    60  58  92 CALM      29.94F
MIDDLETON      PTCLDY    60  59  97 CALM      29.96F
WATERTOWN      CLEAR     60  60 100 NE3       29.96S
MONROE         CLEAR     63  59  88 CALM      29.94F
JANESVILLE     CLEAR     63  61  94 SE5       29.94F
$$

WIZ051-052-058>065-066-070>072-251100-
SOUTHEAST WISCONSIN

CITY           SKY/WX    TMP DP  RH WIND       PRES   REMARKS
MILWAUKEE      PTCLDY    66  57  72 CALM      29.96F
WAUKESHA       PTCLDY    57  57 100 CALM      29.98S FOG
MILWAUKEE/TIMM PTCLDY    61  55  82 CALM      29.98S FOG
RACINE         CLEAR     68  59  73 SW7       29.97F
BURLINGTON     CLEAR     61  56  85 CALM      29.97S
KENOSHA        CLEAR     67  60  78 SW7       29.96F
FOND DU LAC    CLOUDY    56  54  93 CALM      29.98S
SHEBOYGAN      CLEAR     55  53  93 S3        29.98R
WEST BEND      MOCLDY    57  55  94 CALM      29.98S
JUNEAU         CLOUDY    62  59  92 N3        29.99S
$$

LSZ147-162-251100-
LAKE SUPERIOR

STATION/POSITION TIME  TEMP    WIND        PRES    WAVE
                       AIR SEA DIR/SP/G            HT/PER
                 (UTC) (F)     (DEG/KT/KT) (MB)    (FT/S)
W MID LAKE BUOY  0850   39 38   50/  8/  8 1018.3R   1/ 4
DEVILS ISLAND    0900   44      30/ 10/ 11 1018.0S
SAXON HARBOR     0900   46      CALM  /  2 1016.6R
$$

LMZ867-665-643>646-251100-
LAKE MICHIGAN

STATION/POSITION TIME  TEMP    WIND        PRES    WAVE
                       AIR SEA DIR/SP/G            HT/PER
                 (UTC) (F)     (DEG/KT/KT) (MB)    (FT/S)
CHAMBERS ISLAND  0900   54      10/ 14/ 17 1016.6R
N MID LAKE BUOY  0850   49 44   30/  6/  6 1016.0R   1/ 5
NORTHPORT PIER   0900   52     350/ 12/ 15 1016.6R
SISTER BAY       0934   52     360/  9/ 12   N/A
ALGOMA LAKESHORE 0832           70/ 10/ 12   N/A
KEWAUNEE LAKESHO 0900   50      10/  7/ 10 1015.4R
SHEBOYGAN LAKESH 0900   62     200/  2/  3 1015.3R
PORT WASHINGTON  0900   60      CALM  /  2 1015.6S
S MID LAKE BUOY  0850   54 49  170/ 10/ 10 1015.0F   0
KENOSHA   LAKESH 0900   69     220/  7/  9 1014.9S
$$

TC  - TEMPERATURE IN CELSIUS
VSB - VISIBILITY IN STATUTE MILES
WCI - WIND CHILL INDEX
HX  - HEAT INDEX





USA.gov is the U.S. government's official web portal to all federal, state and local government web resources and services.